Location: Chakepay
(13.3931°S, 72.1925°W)
Time: 13:50:40
(UTC+00:00)

MSX - Pass Details

Date: 15 November 2019
Orbit: 895 x 906 km, 98.8° (Epoch: 09 December)

Event Time Altitude Azimuth Distance (km) Brightness Sun altitude
Exits shadow 08:21:12 25° 9° (N) 1,740 5.1 -25.4°
Maximum altitude 08:24:44 84° 284° (WNW) 915 3.7 -24.7°
Drops below altitude 10° 08:30:32 10° 194° (SSW) 2,597 6.4 -23.4°
Sets 08:32:58 0° 193° (SSW) 3,543 7.1 -22.9°
